Location: Unspecified
(0.0000°N, 0.0000°E)
Time: 21:24:53
(UTC+00:00)

BlueWalker 3 - Pass Details

Date: 27 May 2023
Orbit: 494 x 513 km, 53.2° (Epoch: 05 June)

Event Time Altitude Azimuth Distance (km) Brightness Sun altitude
Rises 18:37:36 0° 212° (SSW) 2,567 5.7 -9.4°
Reaches altitude 10° 18:39:47 10° 212° (SSW) 1,683 4.7 -9.9°
Maximum altitude 18:43:35 83° 124° (SE) 499 1.8 -10.8°
Drops below altitude 10° 18:47:22 10° 36° (NE) 1,677 4.4 -11.7°
Sets 18:49:32 0° 35° (NE) 2,558 5.4 -12.2°
